| time (UTC) | temp C | wind direction | speed KPH | gust KPH | rain 1hr cm | rain 24hr cm | rain mn cm | humidity % | barometer mb |
| 20260902123343 | 21 | 200 | 1.6 | 3.2 | 0.48 | 0.51 | 0.48 | 96 | 1016.2 |
| 20260902122848 | 21 | 199 | 0.0 | 6.4 | 0.48 | 0.51 | 0.48 | 96 | 1015.8 |
| 20260902122415 | 21 | 196 | 1.6 | 6.4 | 0.48 | 0.51 | 0.48 | 96 | 1015.6 |
| 20260902121835 | 21 | 157 | 1.6 | 4.8 | 0.48 | 0.51 | 0.48 | 96 | 1015.6 |
| 20260902121341 | 21 | 219 | 0.0 | 4.8 | 0.48 | 0.51 | 0.48 | 96 | 1015.7 |
| 20260902120846 | 21 | 221 | 1.6 | 16.1 | 0.48 | 0.51 | 0.48 | 96 | 1015.7 |
| 20260902120331 | 21 | 208 | 3.2 | 20.9 | 0.48 | 0.51 | 0.48 | 96 | 1015.6 |
| 20260902115835 | 21 | 161 | 9.7 | 35.4 | 0.48 | 0.51 | 0.48 | 96 | 1015.4 |
| 20260902115337 | 21 | 192 | 12.9 | 37.0 | 0.46 | 0.48 | 0.46 | 96 | 1015.5 |
| 20260902114850 | 21 | 253 | 14.5 | 37.0 | 0.25 | 0.28 | 0.25 | 96 | 1015.7 |
| 20260902114346 | 21 | 231 | 3.2 | 11.3 | 0.00 | 0.03 | 0.00 | 96 | 1015.2 |
| 20260902113841 | 21 | 230 | 1.6 | 11.3 | 0.00 | 0.03 | 0.00 | 96 | 1015.2 |
| 20260902113340 | 21 | 269 | 1.6 | 6.4 | 0.00 | 0.03 | 0.00 | 96 | 1015.0 |
| 20260902112842 | 21 | 281 | 1.6 | 8.0 | 0.00 | 0.03 | 0.00 | 96 | 1014.8 |
| 20260902112405 | 21 | 132 | 3.2 | 9.7 | 0.00 | 0.03 | 0.00 | 96 | 1015.0 |
| 20260902111842 | 21 | 207 | 4.8 | 9.7 | 0.00 | 0.03 | 0.00 | 96 | 1015.0 |
| 20260902111342 | 21 | 238 | 3.2 | 6.4 | 0.00 | 0.03 | 0.00 | 96 | 1015.1 |
| 20260902110841 | 21 | 231 | 3.2 | 8.0 | 0.00 | 0.03 | 0.00 | 96 | 1015.0 |
| 20260902110340 | 21 | 245 | 1.6 | 8.0 | 0.00 | 0.03 | 0.00 | 96 | 1014.8 |
| 20260902105847 | 21 | 239 | 1.6 | 8.0 | 0.00 | 0.03 | 0.00 | 96 | 1014.5 |
| 20260902105342 | 21 | 127 | 3.2 | 8.0 | 0.00 | 0.03 | 0.00 | 96 | 1014.5 |
| 20260902104848 | 21 | 145 | 1.6 | 9.7 | 0.00 | 0.03 | 0.00 | 96 | 1014.5 |
| 20260902104406 | 21 | 159 | 1.6 | 9.7 | 0.00 | 0.03 | 0.00 | 95 | 1014.4 |
| 20260902103847 | 21 | 88 | 3.2 | 9.7 | 0.00 | 0.03 | 0.00 | 95 | 1014.4 |
| 20260902103411 | 21 | 171 | 1.6 | 8.0 | 0.00 | 0.03 | 0.00 | 95 | 1014.4 |
| 20260902102834 | 21 | 220 | 3.2 | 6.4 | 0.00 | 0.03 | 0.00 | 95 | 1014.5 |
| 20260902102337 | 21 | 145 | 1.6 | 9.7 | 0.00 | 0.03 | 0.00 | 95 | 1014.6 |
| 20260902101833 | 21 | 211 | 1.6 | 11.3 | 0.00 | 0.03 | 0.00 | 95 | 1014.8 |
| 20260902101352 | 21 | 250 | 1.6 | 9.7 | 0.00 | 0.03 | 0.00 | 95 | 1014.4 |
| 20260902100837 | 21 | 163 | 0.0 | 8.0 | 0.00 | 0.03 | 0.00 | 95 | 1014.2 |
| 20260902100341 | 21 | 178 | 1.6 | 8.0 | 0.00 | 0.03 | 0.00 | 95 | 1014.5 |
| 20260902095902 | 21 | 174 | 1.6 | 8.0 | 0.00 | 0.03 | 0.00 | 95 | 1014.7 |
| 20260902095345 | 21 | 192 | 1.6 | 8.0 | 0.00 | 0.03 | 0.00 | 95 | 1014.6 |
| 20260902094840 | 21 | 202 | 3.2 | 8.0 | 0.00 | 0.03 | 0.00 | 95 | 1014.8 |
| 20260902094333 | 21 | 227 | 1.6 | 8.0 | 0.00 | 0.03 | 0.00 | 95 | 1014.9 |
| 20260902093833 | 21 | 198 | 1.6 | 8.0 | 0.00 | 0.03 | 0.00 | 95 | 1014.9 |
| 20260902093338 | 21 | 184 | 1.6 | 4.8 | 0.00 | 0.03 | 0.00 | 95 | 1015.0 |
| 20260902092844 | 21 | 156 | 1.6 | 6.4 | 0.00 | 0.03 | 0.00 | 95 | 1015.0 |
| 20260902092339 | 21 | 176 | 3.2 | 8.0 | 0.00 | 0.03 | 0.00 | 95 | 1015.0 |
| 20260902091840 | 21 | 161 | 1.6 | 8.0 | 0.00 | 0.03 | 0.00 | 96 | 1015.1 |
| 20260902091338 | 21 | 244 | 1.6 | 4.8 | 0.00 | 0.03 | 0.00 | 95 | 1015.1 |
| 20260902090840 | 21 | 305 | 1.6 | 6.4 | 0.00 | 0.03 | 0.00 | 95 | 1015.2 |
| 20260902090348 | 21 | 211 | 3.2 | 6.4 | 0.00 | 0.03 | 0.00 | 95 | 1015.1 |
| 20260902085852 | 21 | 195 | 1.6 | 3.2 | 0.00 | 0.03 | 0.00 | 95 | 1015.1 |
| 20260902085350 | 21 | 195 | 0.0 | 3.2 | 0.00 | 0.03 | 0.00 | 95 | 1015.4 |
| 20260902084848 | 21 | 195 | 0.0 | 3.2 | 0.00 | 0.03 | 0.00 | 95 | 1015.3 |
| 20260902084332 | 21 | 195 | 1.6 | 3.2 | 0.00 | 0.03 | 0.00 | 95 | 1015.2 |
| 20260902083847 | 21 | 195 | 1.6 | 3.2 | 0.00 | 0.03 | 0.00 | 95 | 1015.1 |
| 20260902083342 | 21 | 194 | 1.6 | 3.2 | 0.00 | 0.03 | 0.00 | 95 | 1015.3 |
| 20260902082845 | 21 | 194 | 0.0 | 4.8 | 0.00 | 0.03 | 0.00 | 95 | 1015.8 |
| 20260902082337 | 21 | 194 | 1.6 | 4.8 | 0.00 | 0.03 | 0.00 | 95 | 1015.8 |
| 20260902081851 | 21 | 194 | 1.6 | 4.8 | 0.00 | 0.03 | 0.00 | 95 | 1015.9 |
| 20260902081332 | 21 | 194 | 0.0 | 3.2 | 0.00 | 0.03 | 0.00 | 95 | 1015.7 |
| 20260902080849 | 21 | 194 | 0.0 | 3.2 | 0.00 | 0.03 | 0.00 | 95 | 1015.7 |
| 20260902080349 | 21 | 194 | 0.0 | 1.6 | 0.00 | 0.03 | 0.00 | 95 | 1015.8 |
| 20260902075835 | 21 | 194 | 0.0 | 1.6 | 0.00 | 0.03 | 0.00 | 95 | 1015.8 |
| 20260902075342 | 21 | 194 | 0.0 | 3.2 | 0.00 | 0.03 | 0.00 | 95 | 1015.7 |
| 20260902074841 | 21 | 194 | 0.0 | 3.2 | 0.00 | 0.03 | 0.00 | 95 | 1015.8 |
| 20260902074341 | 22 | 194 | 0.0 | 1.6 | 0.00 | 0.03 | 0.00 | 95 | 1015.7 |
| 20260902073844 | 22 | 194 | 0.0 | 4.8 | 0.00 | 0.03 | 0.00 | 95 | 1015.8 |
| 20260902073342 | 22 | 171 | 0.0 | 6.4 | 0.00 | 0.03 | 0.00 | 96 | 1015.8 |
| 20260902072837 | 22 | 146 | 0.0 | 1.6 | 0.00 | 0.03 | 0.00 | 96 | 1015.8 |
| 20260902072342 | 22 | 146 | 0.0 | 1.6 | 0.00 | 0.03 | 0.00 | 96 | 1015.9 |
| 20260902071838 | 22 | 146 | 0.0 | 3.2 | 0.00 | 0.03 | 0.00 | 96 | 1015.8 |
| 20260902071334 | 22 | 146 | 0.0 | 3.2 | 0.00 | 0.03 | 0.00 | 95 | 1015.8 |
| 20260902070847 | 22 | 146 | 0.0 | 1.6 | 0.00 | 0.03 | 0.00 | 96 | 1015.9 |
| 20260902070353 | 22 | 146 | 0.0 | 1.6 | 0.00 | 0.03 | 0.00 | 96 | 1015.9 |
| 20260902065838 | 22 | 146 | 0.0 | 1.6 | 0.00 | 0.03 | 0.00 | 96 | 1016.0 |
| 20260902065340 | 22 | 146 | 0.0 | 1.6 | 0.00 | 0.03 | 0.00 | 95 | 1016.0 |
| 20260902064906 | 22 | 146 | 0.0 | 1.6 | 0.00 | 0.03 | 0.00 | 95 | 1016.0 |
| 20260902064342 | 22 | 146 | 0.0 | 1.6 | 0.00 | 0.03 | 0.00 | 95 | 1015.9 |
| 20260902063841 | 22 | 146 | 0.0 | 4.8 | 0.00 | 0.03 | 0.00 | 95 | 1015.9 |
| 20260902063340 | 22 | 146 | 0.0 | 3.2 | 0.00 | 0.03 | 0.00 | 95 | 1016.0 |
| 20260902062838 | 22 | 127 | 0.0 | 4.8 | 0.00 | 0.03 | 0.00 | 95 | 1015.9 |
| 20260902062338 | 22 | 127 | 0.0 | 3.2 | 0.00 | 0.03 | 0.00 | 95 | 1016.0 |
| 20260902061844 | 22 | 175 | 1.6 | 3.2 | 0.00 | 0.03 | 0.00 | 95 | 1016.1 |
| 20260902061401 | 22 | 175 | 0.0 | 1.6 | 0.00 | 0.03 | 0.00 | 95 | 1016.2 |
| 20260902060855 | 22 | 175 | 0.0 | 1.6 | 0.00 | 0.03 | 0.00 | 95 | 1016.3 |
| 20260902060406 | 22 | 175 | 0.0 | 3.2 | 0.00 | 0.03 | 0.00 | 95 | 1016.3 |
| 20260902055852 | 22 | 175 | 0.0 | 3.2 | 0.00 | 0.03 | 0.00 | 95 | 1016.4 |
| 20260902055352 | 22 | 175 | 0.0 | 1.6 | 0.00 | 0.03 | 0.00 | 95 | 1016.1 |
| 20260902054832 | 22 | 175 | 0.0 | 3.2 | 0.00 | 0.03 | 0.00 | 95 | 1016.1 |
| 20260902054331 | 22 | 175 | 1.6 | 3.2 | 0.00 | 0.03 | 0.00 | 95 | 1016.1 |
| 20260902053851 | 22 | 192 | 0.0 | 3.2 | 0.00 | 0.03 | 0.00 | 95 | 1016.1 |
| 20260902053340 | 22 | 192 | 0.0 | 1.6 | 0.00 | 0.03 | 0.00 | 95 | 1016.1 |
| 20260902052840 | 22 | 192 | 0.0 | 3.2 | 0.00 | 0.03 | 0.00 | 95 | 1016.0 |
| 20260902052342 | 22 | 192 | 0.0 | 3.2 | 0.00 | 0.03 | 0.00 | 95 | 1016.0 |
| 20260902051843 | 22 | 192 | 0.0 | 0.0 | 0.00 | 0.03 | 0.00 | 95 | 1015.9 |
| 20260902051332 | 21 | 192 | 0.0 | 0.0 | 0.00 | 0.03 | 0.00 | 95 | 1016.0 |
| 20260902050834 | 21 | 192 | 0.0 | 0.0 | 0.00 | 0.03 | 0.00 | 95 | 1015.9 |
| 20260902050332 | 21 | 192 | 0.0 | 0.0 | 0.00 | 0.03 | 0.00 | 95 | 1015.9 |
| 20260902045837 | 21 | 192 | 0.0 | 1.6 | 0.00 | 0.08 | 0.00 | 95 | 1015.9 |
| 20260902045333 | 21 | 192 | 0.0 | 1.6 | 0.00 | 0.08 | 0.00 | 95 | 1015.9 |
| 20260902044900 | 21 | 192 | 0.0 | 1.6 | 0.00 | 0.08 | 0.00 | 95 | 1015.9 |
| 20260902044333 | 21 | 192 | 0.0 | 1.6 | 0.00 | 0.08 | 0.00 | 95 | 1015.9 |
| 20260902043849 | 21 | 192 | 0.0 | 1.6 | 0.00 | 0.08 | 0.00 | 94 | 1016.0 |
| 20260902043333 | 21 | 192 | 0.0 | 1.6 | 0.00 | 0.08 | 0.00 | 94 | 1016.0 |
| 20260902042834 | 21 | 192 | 0.0 | 4.8 | 0.00 | 0.08 | 0.00 | 94 | 1015.9 |
| 20260902042345 | 21 | 192 | 1.6 | 4.8 | 0.00 | 0.08 | 0.00 | 94 | 1016.0 |
| 20260902041854 | 21 | 192 | 0.0 | 3.2 | 0.00 | 0.08 | 0.00 | 94 | 1015.9 |
| 20260902041359 | 21 | 192 | 0.0 | 3.2 | 0.00 | 0.08 | 0.00 | 94 | 1015.9 |
| 20260902040836 | 21 | 192 | 0.0 | 3.2 | 0.00 | 0.08 | 0.00 | 94 | 1015.7 |
| 20260902040343 | 21 | 192 | 1.6 | 3.2 | 0.00 | 0.08 | 0.00 | 94 | 1015.8 |
| 20260902035843 | 21 | 192 | 0.0 | 0.0 | 0.00 | 0.10 | 0.08 | 94 | 1015.7 |
| 20260902035346 | 21 | 192 | 0.0 | 0.0 | 0.00 | 0.10 | 0.08 | 94 | 1015.8 |
| 20260902034851 | 21 | 192 | 0.0 | 0.0 | 0.00 | 0.10 | 0.08 | 94 | 1015.7 |
| 20260902034333 | 21 | 192 | 0.0 | 0.0 | 0.00 | 0.10 | 0.08 | 94 | 1015.7 |
| 20260902033834 | 21 | 192 | 0.0 | 1.6 | 0.00 | 0.10 | 0.08 | 94 | 1015.6 |
| 20260902033400 | 21 | 192 | 0.0 | 4.8 | 0.00 | 0.10 | 0.08 | 94 | 1015.6 |
| 20260902032835 | 21 | 192 | 1.6 | 4.8 | 0.00 | 0.10 | 0.08 | 94 | 1015.6 |
| 20260902032333 | 21 | 232 | 0.0 | 3.2 | 0.00 | 0.10 | 0.08 | 93 | 1015.5 |
| 20260902031851 | 21 | 232 | 1.6 | 3.2 | 0.00 | 0.10 | 0.08 | 93 | 1015.5 |
| 20260902031337 | 21 | 232 | 0.0 | 6.4 | 0.00 | 0.10 | 0.08 | 93 | 1015.6 |
| 20260902030837 | 21 | 232 | 1.6 | 6.4 | 0.00 | 0.10 | 0.08 | 93 | 1015.5 |
| 20260902030341 | 21 | 234 | 1.6 | 4.8 | 0.00 | 0.10 | 0.08 | 94 | 1015.4 |
| 20260902025849 | 21 | 234 | 3.2 | 4.8 | 0.00 | 0.10 | 0.08 | 93 | 1015.4 |
| 20260902025348 | 21 | 237 | 1.6 | 4.8 | 0.00 | 0.10 | 0.08 | 93 | 1015.5 |
| 20260902024906 | 21 | 237 | 1.6 | 4.8 | 0.00 | 0.10 | 0.08 | 93 | 1015.5 |
| 20260902024412 | 22 | 237 | 1.6 | 1.6 | 0.00 | 0.10 | 0.08 | 93 | 1015.6 |
| 20260902023850 | 22 | 237 | 0.0 | 3.2 | 0.00 | 0.10 | 0.08 | 93 | 1015.6 |
| 20260902023349 | 22 | 237 | 1.6 | 4.8 | 0.00 | 0.10 | 0.08 | 93 | 1015.7 |
| 20260902022846 | 22 | 237 | 1.6 | 4.8 | 0.00 | 0.10 | 0.08 | 93 | 1015.7 |
| 20260902022351 | 22 | 235 | 1.6 | 3.2 | 0.00 | 0.10 | 0.08 | 93 | 1015.7 |
| 20260902021847 | 22 | 235 | 0.0 | 3.2 | 0.00 | 0.10 | 0.08 | 93 | 1015.7 |
| 20260902021344 | 22 | 235 | 0.0 | 1.6 | 0.00 | 0.10 | 0.08 | 92 | 1015.7 |
| 20260902020842 | 22 | 235 | 0.0 | 1.6 | 0.00 | 0.10 | 0.08 | 92 | 1015.8 |
| 20260902020340 | 22 | 235 | 0.0 | 1.6 | 0.00 | 0.10 | 0.08 | 92 | 1015.7 |
| 20260902015848 | 22 | 235 | 0.0 | 1.6 | 0.00 | 0.10 | 0.08 | 92 | 1015.8 |
| 20260902015346 | 22 | 342 | 0.0 | 3.2 | 0.00 | 0.10 | 0.08 | 92 | 1015.8 |
| 20260902014908 | 22 | 342 | 0.0 | 6.4 | 0.00 | 0.10 | 0.08 | 92 | 1015.8 |
| 20260902014348 | 22 | 223 | 0.0 | 6.4 | 0.00 | 0.10 | 0.08 | 92 | 1015.9 |
| 20260902013853 | 22 | 260 | 0.0 | 3.2 | 0.00 | 0.10 | 0.08 | 92 | 1015.8 |
| 20260902013347 | 22 | 260 | 0.0 | 4.8 | 0.00 | 0.10 | 0.08 | 92 | 1015.6 |
| 20260902012830 | 22 | 242 | 1.6 | 4.8 | 0.00 | 0.10 | 0.08 | 92 | 1015.7 |
| 20260902012331 | 22 | 268 | 0.0 | 8.0 | 0.00 | 0.10 | 0.08 | 92 | 1015.6 |
| 20260902011835 | 22 | 268 | 0.0 | 8.0 | 0.00 | 0.10 | 0.08 | 91 | 1015.6 |
| 20260902011338 | 22 | 227 | 1.6 | 9.7 | 0.00 | 0.10 | 0.08 | 91 | 1015.6 |
| 20260902010838 | 22 | 225 | 3.2 | 9.7 | 0.00 | 0.10 | 0.08 | 91 | 1015.6 |
| 20260902010345 | 22 | 211 | 1.6 | 8.0 | 0.00 | 0.10 | 0.08 | 91 | 1015.4 |
| 20260902005842 | 22 | 219 | 1.6 | 8.0 | 0.00 | 0.10 | 0.08 | 92 | 1015.4 |
| 20260902005339 | 22 | 201 | 1.6 | 9.7 | 0.00 | 0.10 | 0.08 | 92 | 1015.3 |
| 20260902004835 | 22 | 236 | 3.2 | 6.4 | 0.00 | 0.10 | 0.08 | 91 | 1015.3 |
| 20260902004332 | 22 | 227 | 3.2 | 8.0 | 0.00 | 0.10 | 0.08 | 91 | 1015.2 |
| 20260902003837 | 22 | 232 | 1.6 | 8.0 | 0.00 | 0.10 | 0.08 | 91 | 1015.1 |
| 20260902003340 | 22 | 221 | 3.2 | 8.0 | 0.00 | 0.10 | 0.08 | 91 | 1015.2 |
| 20260902002845 | 22 | 207 | 4.8 | 8.0 | 0.00 | 0.10 | 0.08 | 90 | 1015.3 |
| 20260902002347 | 22 | 229 | 1.6 | 4.8 | 0.00 | 0.10 | 0.08 | 90 | 1015.2 |
| 20260902001849 | 22 | 246 | 3.2 | 8.0 | 0.00 | 0.10 | 0.08 | 90 | 1015.1 |
| 20260902001344 | 23 | 225 | 3.2 | 8.0 | 0.00 | 0.10 | 0.08 | 90 | 1015.1 |
| 20260902000908 | 23 | 225 | 1.6 | 4.8 | 0.00 | 0.10 | 0.08 | 89 | 1015.1 |
| 20260902000345 | 23 | 169 | 1.6 | 1.6 | 0.00 | 0.10 | 0.08 | 89 | 1015.1 |
| 20260901235901 | 23 | 169 | 0.0 | 1.6 | 0.00 | 0.10 | 0.08 | 88 | 1015.0 |
| 20260901235334 | 23 | 169 | 0.0 | 0.0 | 0.00 | 0.10 | 0.08 | 87 | 1015.1 |
| 20260901234832 | 23 | 169 | 0.0 | 0.0 | 0.00 | 0.10 | 0.08 | 87 | 1015.1 |
| 20260901234333 | 23 | 169 | 0.0 | 0.0 | 0.00 | 0.10 | 0.08 | 87 | 1015.2 |
| 20260901233833 | 23 | 169 | 0.0 | 1.6 | 0.00 | 0.10 | 0.08 | 87 | 1015.0 |
| 20260901233350 | 24 | 169 | 0.0 | 1.6 | 0.00 | 0.10 | 0.08 | 87 | 1015.0 |
| 20260901232847 | 24 | 169 | 0.0 | 1.6 | 0.00 | 0.10 | 0.08 | 87 | 1014.9 |
| 20260901232347 | 24 | 169 | 0.0 | 1.6 | 0.00 | 0.10 | 0.08 | 86 | 1015.0 |
| 20260901231839 | 24 | 169 | 0.0 | 1.6 | 0.00 | 0.10 | 0.08 | 86 | 1015.2 |
| 20260901231336 | 24 | 169 | 0.0 | 3.2 | 0.00 | 0.10 | 0.08 | 86 | 1015.1 |
| 20260901230849 | 25 | 169 | 1.6 | 3.2 | 0.00 | 0.10 | 0.08 | 86 | 1015.1 |
| 20260901230408 | 25 | 169 | 0.0 | 4.8 | 0.00 | 0.10 | 0.08 | 86 | 1015.2 |
| 20260901225851 | 25 | 169 | 1.6 | 4.8 | 0.00 | 0.10 | 0.08 | 85 | 1015.2 |
| 20260901225331 | 25 | 179 | 0.0 | 3.2 | 0.00 | 0.10 | 0.08 | 85 | 1015.3 |
| 20260901224836 | 25 | 228 | 0.0 | 6.4 | 0.00 | 0.10 | 0.08 | 85 | 1015.1 |
| 20260901224335 | 25 | 237 | 0.0 | 11.3 | 0.00 | 0.10 | 0.08 | 85 | 1015.3 |
| 20260901223839 | 25 | 355 | 0.0 | 11.3 | 0.00 | 0.10 | 0.08 | 85 | 1015.4 |
| 20260901223342 | 25 | 179 | 1.6 | 3.2 | 0.00 | 0.10 | 0.08 | 85 | 1015.4 |
| 20260901222839 | 25 | 142 | 1.6 | 4.8 | 0.00 | 0.10 | 0.08 | 85 | 1015.3 |
| 20260901222340 | 25 | 222 | 1.6 | 6.4 | 0.00 | 0.10 | 0.08 | 84 | 1015.2 |
| 20260901221852 | 25 | 200 | 1.6 | 9.7 | 0.00 | 0.10 | 0.08 | 84 | 1015.4 |
| 20260901221348 | 25 | 240 | 1.6 | 14.5 | 0.00 | 0.10 | 0.08 | 84 | 1015.3 |
| 20260901220851 | 25 | 207 | 6.4 | 14.5 | 0.00 | 0.10 | 0.08 | 84 | 1015.2 |
| 20260901220351 | 25 | 232 | 3.2 | 6.4 | 0.00 | 0.10 | 0.08 | 85 | 1015.2 |
| 20260901215845 | 25 | 206 | 0.0 | 6.4 | 0.00 | 0.10 | 0.08 | 85 | 1015.3 |
| 20260901215343 | 25 | 217 | 1.6 | 12.9 | 0.00 | 0.10 | 0.08 | 86 | 1015.3 |
| 20260901214332 | 25 | 207 | 4.8 | 12.9 | 0.00 | 0.10 | 0.08 | 87 | 1015.2 |
| 20260901213839 | 25 | 229 | 4.8 | 14.5 | 0.00 | 0.10 | 0.08 | 86 | 1015.2 |
| 20260901213333 | 25 | 211 | 1.6 | 14.5 | 0.00 | 0.10 | 0.08 | 86 | 1015.4 |
| 20260901212837 | 25 | 208 | 3.2 | 8.0 | 0.00 | 0.10 | 0.08 | 86 | 1015.3 |
| 20260901212341 | 25 | 191 | 3.2 | 12.9 | 0.00 | 0.10 | 0.08 | 86 | 1015.3 |
| 20260901211837 | 25 | 243 | 3.2 | 12.9 | 0.00 | 0.10 | 0.08 | 86 | 1015.3 |
| 20260901211336 | 25 | 159 | 3.2 | 9.7 | 0.00 | 0.10 | 0.08 | 87 | 1015.3 |
| 20260901210834 | 25 | 208 | 4.8 | 9.7 | 0.00 | 0.10 | 0.08 | 86 | 1015.3 |
| 20260901210416 | 25 | 211 | 1.6 | 6.4 | 0.00 | 0.10 | 0.08 | 86 | 1015.3 |
| 20260901205845 | 25 | 119 | 1.6 | 4.8 | 0.00 | 0.10 | 0.08 | 86 | 1015.3 |
| 20260901205345 | 25 | 134 | 1.6 | 11.3 | 0.00 | 0.10 | 0.08 | 85 | 1015.3 |
| 20260901204839 | 25 | 202 | 3.2 | 11.3 | 0.00 | 0.10 | 0.08 | 85 | 1015.3 |
| 20260901204342 | 25 | 265 | 4.8 | 11.3 | 0.00 | 0.10 | 0.08 | 86 | 1015.4 |
| 20260901203901 | 25 | 196 | 4.8 | 9.7 | 0.00 | 0.10 | 0.08 | 86 | 1015.4 |
| 20260901203339 | 25 | 235 | 3.2 | 8.0 | 0.00 | 0.10 | 0.08 | 87 | 1015.4 |
| 20260901202843 | 25 | 245 | 3.2 | 14.5 | 0.00 | 0.10 | 0.08 | 87 | 1015.5 |
| 20260901202337 | 25 | 259 | 4.8 | 14.5 | 0.00 | 0.10 | 0.08 | 86 | 1015.6 |
| 20260901201839 | 25 | 162 | 1.6 | 16.1 | 0.00 | 0.10 | 0.08 | 87 | 1015.4 |
| 20260901201401 | 25 | 188 | 3.2 | 8.0 | 0.00 | 0.10 | 0.08 | 87 | 1015.3 |
| 20260901200847 | 25 | 138 | 3.2 | 11.3 | 0.00 | 0.10 | 0.08 | 87 | 1015.4 |
| 20260901200333 | 25 | 227 | 3.2 | 11.3 | 0.00 | 0.10 | 0.08 | 88 | 1015.3 |
| 20260901195841 | 25 | 154 | 1.6 | 9.7 | 0.00 | 0.13 | 0.08 | 88 | 1015.3 |
| 20260901195337 | 25 | 178 | 3.2 | 8.0 | 0.00 | 0.13 | 0.08 | 87 | 1015.3 |
| 20260901194844 | 25 | 147 | 3.2 | 11.3 | 0.00 | 0.13 | 0.08 | 88 | 1015.3 |
| 20260901194342 | 25 | 216 | 3.2 | 11.3 | 0.00 | 0.13 | 0.08 | 89 | 1015.3 |
| 20260901193847 | 25 | 222 | 3.2 | 6.4 | 0.00 | 0.13 | 0.08 | 89 | 1015.4 |
| 20260901193408 | 25 | 51 | 3.2 | 6.4 | 0.00 | 0.13 | 0.08 | 88 | 1015.3 |
| 20260901192845 | 25 | 151 | 1.6 | 6.4 | 0.00 | 0.13 | 0.08 | 89 | 1015.6 |
| 20260901192338 | 25 | 261 | 3.2 | 6.4 | 0.00 | 0.13 | 0.08 | 88 | 1015.5 |
| 20260901191910 | 25 | 53 | 1.6 | 8.0 | 0.00 | 0.13 | 0.08 | 88 | 1015.7 |
| 20260901191337 | 25 | 48 | 3.2 | 8.0 | 0.00 | 0.13 | 0.08 | 88 | 1015.6 |
| 20260901190844 | 25 | 112 | 3.2 | 11.3 | 0.00 | 0.13 | 0.08 | 89 | 1015.7 |
| 20260901190347 | 25 | 83 | 3.2 | 11.3 | 0.00 | 0.13 | 0.08 | 88 | 1015.6 |
| 20260901185831 | 25 | 113 | 1.6 | 9.7 | 0.00 | 0.13 | 0.08 | 88 | 1015.7 |
| 20260901185338 | 25 | 139 | 3.2 | 9.7 | 0.00 | 0.13 | 0.08 | 87 | 1015.8 |
| 20260901184834 | 25 | 55 | 3.2 | 8.0 | 0.00 | 0.13 | 0.08 | 87 | 1015.6 |
| 20260901183835 | 25 | 202 | 3.2 | 9.7 | 0.00 | 0.13 | 0.08 | 86 | 1015.5 |
| 20260901183337 | 25 | 219 | 3.2 | 9.7 | 0.00 | 0.13 | 0.08 | 86 | 1015.4 |
| 20260901182842 | 25 | 308 | 3.2 | 9.7 | 0.00 | 0.13 | 0.08 | 85 | 1015.3 |
| 20260901182337 | 25 | 80 | 3.2 | 9.7 | 0.00 | 0.13 | 0.08 | 86 | 1015.4 |
| 20260901181835 | 25 | 161 | 3.2 | 9.7 | 0.00 | 0.13 | 0.08 | 86 | 1015.3 |
| 20260901181337 | 25 | 80 | 1.6 | 6.4 | 0.00 | 0.13 | 0.08 | 85 | 1015.2 |
| 20260901180848 | 26 | 91 | 3.2 | 11.3 | 0.00 | 0.13 | 0.08 | 85 | 1015.3 |
| 20260901180410 | 26 | 236 | 6.4 | 11.3 | 0.00 | 0.13 | 0.08 | 84 | 1015.2 |
| 20260901175833 | 26 | 310 | 4.8 | 9.7 | 0.00 | 0.15 | 0.08 | 85 | 1015.1 |
| 20260901175341 | 26 | 218 | 3.2 | 11.3 | 0.00 | 0.15 | 0.08 | 86 | 1015.0 |
| 20260901174841 | 26 | 240 | 3.2 | 11.3 | 0.00 | 0.15 | 0.08 | 85 | 1015.0 |
| 20260901174343 | 26 | 252 | 4.8 | 9.7 | 0.00 | 0.15 | 0.08 | 85 | 1015.1 |
| 20260901173903 | 26 | 230 | 3.2 | 14.5 | 0.00 | 0.15 | 0.08 | 86 | 1014.9 |
| 20260901173345 | 26 | 242 | 6.4 | 14.5 | 0.00 | 0.15 | 0.08 | 84 | 1014.8 |
| 20260901172852 | 26 | 18 | 4.8 | 12.9 | 0.00 | 0.15 | 0.08 | 84 | 1014.6 |
| 20260901172351 | 26 | 173 | 3.2 | 12.9 | 0.00 | 0.15 | 0.08 | 86 | 1014.8 |
| 20260901171852 | 26 | 209 | 4.8 | 11.3 | 0.00 | 0.15 | 0.08 | 85 | 1014.8 |
| 20260901171334 | 26 | 205 | 4.8 | 9.7 | 0.00 | 0.15 | 0.08 | 84 | 1014.7 |
| 20260901170840 | 26 | 150 | 3.2 | 8.0 | 0.00 | 0.15 | 0.08 | 86 | 1014.6 |
| 20260901170343 | 26 | 275 | 3.2 | 6.4 | 0.00 | 0.15 | 0.08 | 84 | 1014.7 |
| 20260901165847 | 26 | 84 | 1.6 | 14.5 | 0.00 | 0.38 | 0.08 | 84 | 1014.6 |
| 20260901165401 | 26 | 211 | 6.4 | 16.1 | 0.00 | 0.38 | 0.08 | 85 | 1014.7 |
| 20260901164843 | 26 | 243 | 8.0 | 16.1 | 0.00 | 0.38 | 0.08 | 84 | 1014.8 |
| 20260901164343 | 26 | 228 | 4.8 | 12.9 | 0.00 | 0.38 | 0.08 | 85 | 1014.7 |
| 20260901163835 | 26 | 105 | 3.2 | 14.5 | 0.00 | 0.38 | 0.08 | 84 | 1014.7 |
| 20260901163338 | 26 | 232 | 8.0 | 14.5 | 0.00 | 0.38 | 0.08 | 85 | 1014.7 |
| 20260901162833 | 25 | 209 | 4.8 | 11.3 | 0.00 | 0.38 | 0.08 | 86 | 1014.7 |
| 20260901162346 | 25 | 244 | 4.8 | 11.3 | 0.03 | 0.38 | 0.08 | 86 | 1014.8 |
| 20260901161846 | 25 | 222 | 3.2 | 9.7 | 0.03 | 0.38 | 0.08 | 86 | 1014.9 |
| 20260901161410 | 25 | 207 | 4.8 | 12.9 | 0.03 | 0.38 | 0.08 | 85 | 1014.8 |
| 20260901160830 | 26 | 211 | 4.8 | 12.9 | 0.03 | 0.38 | 0.08 | 84 | 1014.9 |
| 20260901160331 | 26 | 269 | 3.2 | 14.5 | 0.03 | 0.38 | 0.08 | 85 | 1014.9 |
| 20260901155841 | 25 | 205 | 3.2 | 14.5 | 0.03 | 0.41 | 0.08 | 85 | 1014.8 |
| 20260901155402 | 25 | 221 | 6.4 | 14.5 | 0.03 | 0.41 | 0.08 | 85 | 1014.8 |
| 20260901154848 | 25 | 209 | 6.4 | 12.9 | 0.03 | 0.41 | 0.08 | 88 | 1014.8 |
| 20260901154345 | 25 | 242 | 4.8 | 9.7 | 0.03 | 0.41 | 0.08 | 87 | 1014.8 |
| 20260901153838 | 25 | 250 | 4.8 | 9.7 | 0.03 | 0.41 | 0.08 | 86 | 1014.7 |
| 20260901153343 | 25 | 238 | 4.8 | 19.3 | 0.03 | 0.41 | 0.08 | 88 | 1014.6 |
| 20260901152837 | 25 | 215 | 8.0 | 19.3 | 0.03 | 0.41 | 0.08 | 87 | 1014.6 |
| 20260901152343 | 25 | 198 | 4.8 | 14.5 | 0.00 | 0.38 | 0.05 | 88 | 1014.6 |
| 20260901151848 | 25 | 245 | 8.0 | 14.5 | 0.00 | 0.38 | 0.05 | 88 | 1014.5 |
| 20260901151354 | 25 | 163 | 3.2 | 9.7 | 0.00 | 0.38 | 0.05 | 89 | 1014.5 |
| 20260901150854 | 24 | 205 | 4.8 | 11.3 | 0.00 | 0.38 | 0.05 | 89 | 1014.5 |
| 20260901150358 | 24 | 194 | 3.2 | 11.3 | 0.00 | 0.38 | 0.05 | 89 | 1014.5 |
| 20260901145831 | 24 | 272 | 3.2 | 11.3 | 0.00 | 0.56 | 0.05 | 89 | 1014.4 |
| 20260901145339 | 24 | 177 | 3.2 | 11.3 | 0.00 | 0.56 | 0.05 | 89 | 1014.5 |
| 20260901144845 | 24 | 234 | 4.8 | 14.5 | 0.00 | 0.56 | 0.05 | 90 | 1014.4 |
| 20260901144352 | 24 | 212 | 4.8 | 14.5 | 0.00 | 0.56 | 0.05 | 90 | 1014.4 |
| 20260901143834 | 24 | 220 | 4.8 | 8.0 | 0.00 | 0.56 | 0.05 | 90 | 1014.5 |
| 20260901143335 | 24 | 182 | 1.6 | 11.3 | 0.00 | 0.56 | 0.05 | 90 | 1014.6 |
| 20260901142904 | 24 | 215 | 3.2 | 11.3 | 0.00 | 0.56 | 0.05 | 90 | 1014.5 |
| 20260901142403 | 24 | 252 | 3.2 | 9.7 | 0.00 | 0.56 | 0.05 | 90 | 1014.7 |
| 20260901141903 | 24 | 213 | 3.2 | 9.7 | 0.00 | 0.56 | 0.05 | 90 | 1014.6 |
| 20260901141334 | 24 | 186 | 3.2 | 6.4 | 0.00 | 0.56 | 0.05 | 91 | 1014.7 |
| 20260901140338 | 24 | 231 | 1.6 | 8.0 | 0.00 | 0.56 | 0.05 | 90 | 1014.7 |
| 20260901135846 | 24 | 214 | 3.2 | 11.3 | 0.00 | 0.69 | 0.05 | 90 | 1014.8 |
| 20260901135341 | 24 | 232 | 3.2 | 11.3 | 0.00 | 0.69 | 0.05 | 90 | 1014.8 |
| 20260901134835 | 24 | 207 | 4.8 | 11.3 | 0.00 | 0.69 | 0.05 | 91 | 1014.8 |
| 20260901134349 | 23 | 285 | 1.6 | 11.3 | 0.00 | 0.69 | 0.05 | 92 | 1014.8 |
| 20260901133842 | 23 | 281 | 3.2 | 11.3 | 0.00 | 0.69 | 0.05 | 92 | 1014.9 |
| 20260901133357 | 23 | 67 | 1.6 | 6.4 | 0.00 | 0.69 | 0.05 | 91 | 1014.9 |
| 20260901132910 | 23 | 176 | 1.6 | 9.7 | 0.00 | 0.69 | 0.05 | 91 | 1014.8 |
| 20260901132344 | 23 | 195 | 3.2 | 9.7 | 0.00 | 0.69 | 0.05 | 92 | 1014.7 |
| 20260901131859 | 23 | 311 | 4.8 | 8.0 | 0.00 | 0.69 | 0.05 | 93 | 1014.9 |
| 20260901131333 | 23 | 215 | 3.2 | 9.7 | 0.00 | 0.69 | 0.05 | 94 | 1014.7 |
| 20260901130847 | 23 | 242 | 4.8 | 9.7 | 0.00 | 0.69 | 0.05 | 95 | 1014.6 |
| 20260901130347 | 23 | 204 | 3.2 | 9.7 | 0.00 | 0.69 | 0.05 | 96 | 1014.8 |
| 20260901125835 | 22 | 192 | 3.2 | 8.0 | 0.00 | 0.71 | 0.05 | 97 | 1014.8 |
| 20260901125349 | 22 | 188 | 1.6 | 9.7 | 0.00 | 0.71 | 0.05 | 97 | 1015.0 |
| 20260901124843 | 22 | 205 | 3.2 | 9.7 | 0.00 | 0.71 | 0.05 | 97 | 1014.9 |
| 20260901124336 | 22 | 180 | 3.2 | 9.7 | 0.00 | 0.71 | 0.05 | 97 | 1014.9 |
| 20260901123833 | 22 | 193 | 1.6 | 8.0 | 0.00 | 0.71 | 0.05 | 97 | 1015.0 |